Retour au catalogue

ICEYE-X78

ActifScienceSSO
NORAD 68995·PAYLOAD·🇸🇬 Singapore

Lancé May 3, 2026 depuis Vandenberg Space Force Base

Loading…

Prochains Passages (prochaines 24 heures)

TLE

FraisSource: Space-Track

Époque: Sep 14, 2026, 22:52 UTC

1 68995U 26100R   26257.95330887  .00000575  00000-0  62294-4 0  9995
2 68995  97.7239 153.6910 0002520 152.2005 207.9349 14.91897065 20089

Suivez ICEYE-X78 en temps réel avec AllMySat

Download on the App Store